Date String (YYYY-MM-DD hh:mm:ss) UTC,Instrument flags,Ambient pressure (hPa),Sample flow (lpm),Bypass flow (lpm),Sample temperature (°C),Ambient temperature (°C),ASC tube jacket temperature (°C),LED temperature (°C),Box temperature (°C),Sample RH (%),Span deviation,Mass concentration (μg/m³),Mass concentration (μg/m³),Mass concentration (μg/m³)
DateTimeUTC,F1_M11,P_M11,Q1_M11,Q2_M11,T1_M11,T2_M11,T3_M11,T4_M11,T5_M11,U1_M11,ZSPAN_M11,X0_M11,X2_M11,X1_M11
2022-02-20 21:00:00,,0816.5,4.99,0.00,26.7,26.1,00.0,35.6,28.6,06.1,0000.0,0004.45,0001.33,0000.98
2022-02-20 21:01:00,,0816.7,5.00,0.00,26.7,26.1,00.0,35.6,28.6,06.7,0000.0,0004.60,0001.31,0000.97
2022-02-20 21:02:00,,0816.6,5.01,0.00,26.7,26.1,00.0,35.6,28.7,04.9,0000.0,0004.07,0001.24,0000.94
2022-02-20 21:03:00,,0816.5,5.00,0.00,26.8,26.1,00.0,35.6,28.7,05.8,0000.0,0003.96,0001.21,0000.91
2022-02-20 21:04:00,,0816.6,4.99,0.00,26.8,26.1,00.0,35.6,28.7,03.5,0000.0,0003.81,0001.16,0000.87
2022-02-20 21:05:00,,0816.5,5.01,0.00,26.8,26.1,00.0,35.6,28.7,03.2,0000.0,0003.71,0001.09,0000.83
2022-02-20 21:06:00,,0816.5,4.99,0.00,26.8,26.1,00.0,35.6,28.7,03.3,0000.0,0003.58,0001.02,0000.79
2022-02-20 21:07:00,,0816.5,5.00,0.00,26.8,26.1,00.0,35.7,28.7,03.4,0000.0,0002.55,0000.97,0000.75
2022-02-20 21:08:00,,0816.4,5.01,0.00,26.8,26.1,00.0,35.7,28.7,03.9,0000.0,0001.94,0000.88,0000.70
2022-02-20 21:09:00,,0816.4,4.99,0.00,26.8,26.1,00.0,35.7,28.7,03.1,0000.0,0001.79,0000.77,0000.63
2022-02-20 21:10:00,,0816.4,5.02,0.00,26.8,26.1,00.0,35.7,28.7,02.7,0000.0,0001.56,0000.69,0000.56
2022-02-20 21:11:00,,0816.4,4.99,0.00,26.8,26.1,00.0,35.7,28.7,02.8,0000.0,0001.31,0000.61,0000.51
2022-02-20 21:12:00,,0816.4,5.01,0.00,26.8,26.1,00.0,35.7,28.7,03.0,0000.0,0000.95,0000.57,0000.44
2022-02-20 21:13:00,,0816.4,4.99,0.00,26.8,26.1,00.0,35.7,28.7,03.0,0000.0,0000.96,0000.55,0000.41
2022-02-20 21:14:00,,0816.3,4.99,0.00,26.8,26.1,00.0,35.7,28.6,03.0,0000.0,0000.97,0000.51,0000.37
2022-02-20 21:15:00,,0816.3,5.01,0.00,26.8,26.1,00.0,35.7,28.6,02.7,0000.0,0000.97,0000.51,0000.35
2022-02-20 21:16:00,,0816.3,5.00,0.00,26.8,26.1,00.0,35.7,28.6,02.8,0000.0,0001.02,0000.53,0000.35
2022-02-20 21:17:00,,0816.2,4.99,0.00,26.8,26.2,00.0,35.7,28.7,02.7,0000.0,0001.24,0000.54,0000.35
2022-02-20 21:18:00,,0816.3,5.01,0.00,26.9,26.2,00.0,35.7,28.7,02.8,0000.0,0001.77,0000.56,0000.36
2022-02-20 21:19:00,,0816.2,5.00,0.00,26.9,26.2,00.0,35.8,28.7,03.2,0000.0,0001.73,0000.55,0000.35
2022-02-20 21:20:00,,0816.3,5.00,0.00,26.9,26.2,00.0,35.8,28.7,02.9,0000.0,0001.57,0000.53,0000.35
2022-02-20 21:21:00,,0816.2,5.00,0.00,26.9,26.2,00.0,35.8,28.7,02.7,0000.0,0001.61,0000.54,0000.35
2022-02-20 21:22:00,,0816.2,4.99,0.00,26.9,26.2,00.0,35.8,28.7,02.8,0000.0,0001.63,0000.55,0000.35
2022-02-20 21:23:00,,0816.2,4.98,0.00,26.9,26.2,00.0,35.8,28.7,02.9,0000.0,0001.58,0000.56,0000.36
2022-02-20 21:24:00,,0816.1,5.02,0.00,26.9,26.3,00.0,35.8,28.7,02.9,0000.0,0001.62,0000.58,0000.36
2022-02-20 21:25:00,,0816.1,4.99,0.00,26.9,26.3,00.0,35.8,28.7,03.3,0000.0,0001.65,0000.59,0000.36
2022-02-20 21:26:00,,0816.1,5.01,0.00,26.9,26.3,00.0,35.8,28.7,03.2,0000.0,0001.65,0000.60,0000.37
2022-02-20 21:27:00,,0816.1,5.00,0.00,27.0,26.3,00.0,35.8,28.8,03.0,0000.0,0001.59,0000.58,0000.38
2022-02-20 21:28:00,,0816.1,4.99,0.00,27.0,26.3,00.0,35.8,28.8,02.7,0000.0,0001.38,0000.56,0000.37
2022-02-20 21:29:00,,0816.2,4.99,0.00,27.0,26.3,00.0,35.9,28.8,02.9,0000.0,0000.91,0000.57,0000.37
2022-02-20 21:30:00,,0816.4,5.01,0.00,27.0,26.3,00.0,35.9,28.8,03.0,0000.0,0001.03,0000.59,0000.36
2022-02-20 21:31:00,,0816.1,5.01,0.00,27.0,26.4,00.0,35.9,28.8,03.2,0000.0,0001.03,0000.59,0000.36
2022-02-20 21:32:00,,0816.0,4.99,0.00,27.0,26.4,00.0,35.9,28.8,03.2,0000.0,0000.99,0000.57,0000.36
2022-02-20 21:33:00,,0816.0,5.01,0.00,27.0,26.4,00.0,35.9,28.8,03.5,0000.0,0000.96,0000.56,0000.36
2022-02-20 21:34:00,,0816.0,5.00,0.00,27.0,26.4,00.0,35.9,28.8,03.6,0000.0,0001.71,0000.55,0000.36
2022-02-20 21:35:00,,0816.0,4.98,0.00,27.1,26.4,00.0,35.9,28.9,03.2,0000.0,0002.02,0000.54,0000.36
2022-02-20 21:36:00,,0816.0,5.02,0.00,27.1,26.4,00.0,35.9,28.9,03.0,0000.0,0001.98,0000.54,0000.38
2022-02-20 21:37:00,,0816.0,5.00,0.00,27.1,26.4,00.0,36.0,28.9,03.3,0000.0,0001.96,0000.54,0000.38
2022-02-20 21:38:00,,0816.0,5.00,0.00,27.1,26.4,00.0,36.0,28.9,03.3,0000.0,0001.95,0000.53,0000.37
2022-02-20 21:39:00,,0816.0,5.01,0.00,27.1,26.5,00.0,36.0,28.9,02.9,0000.0,0002.03,0000.54,0000.38
2022-02-20 21:40:00,,0815.9,4.99,0.00,27.1,26.5,00.0,36.0,28.9,02.8,0000.0,0002.18,0000.58,0000.39
2022-02-20 21:41:00,,0815.9,5.02,0.00,27.1,26.5,00.0,36.0,29.0,02.9,0000.0,0002.08,0000.56,0000.40
2022-02-20 21:42:00,,0816.0,4.98,0.00,27.2,26.5,00.0,36.0,29.0,03.0,0000.0,0002.05,0000.56,0000.41
2022-02-20 21:43:00,,0815.9,5.02,0.00,27.2,26.6,00.0,36.0,29.0,03.0,0000.0,0002.13,0000.59,0000.41
2022-02-20 21:44:00,,0815.8,5.00,0.00,27.2,26.6,00.0,36.1,29.0,03.4,0000.0,0002.15,0000.60,0000.42
2022-02-20 21:45:00,,0815.8,4.99,0.00,27.2,26.6,00.0,36.1,29.0,03.1,0000.0,0001.40,0000.61,0000.42
2022-02-20 21:46:00,,0815.8,5.00,0.00,27.2,26.6,00.0,36.1,29.0,03.0,0000.0,0001.09,0000.61,0000.43
2022-02-20 21:47:00,,0815.8,5.00,0.00,27.2,26.6,00.0,36.1,29.0,02.9,0000.0,0001.02,0000.58,0000.42
2022-02-20 21:48:00,,0815.8,5.00,0.00,27.2,26.7,00.0,36.1,29.1,03.0,0000.0,0001.05,0000.60,0000.42
2022-02-20 21:49:00,,0815.8,4.99,0.00,27.3,26.7,00.0,36.1,29.1,03.0,0000.0,0001.07,0000.61,0000.43
2022-02-20 21:50:00,,0815.7,5.01,0.00,27.3,26.7,00.0,36.1,29.1,03.0,0000.0,0001.00,0000.60,0000.42
2022-02-20 21:51:00,,0815.7,4.99,0.00,27.3,26.6,00.0,36.2,29.1,03.1,0000.0,0000.99,0000.57,0000.43
2022-02-20 21:52:00,,0815.6,4.99,0.00,27.3,26.6,00.0,36.2,29.1,02.9,0000.0,0001.19,0000.58,0000.44
2022-02-20 21:53:00,,0815.6,5.01,0.00,27.3,26.6,00.0,36.2,29.1,03.0,0000.0,0001.27,0000.60,0000.44
2022-02-20 21:54:00,,0815.6,4.99,0.00,27.3,26.6,00.0,36.2,29.0,03.3,0000.0,0001.32,0000.60,0000.44
2022-02-20 21:55:00,,0815.8,4.99,0.00,27.3,26.6,00.0,36.2,29.0,03.5,0000.0,0001.32,0000.59,0000.44
2022-02-20 21:56:00,,0815.9,5.00,0.00,27.3,26.6,00.0,36.2,29.0,03.1,0000.0,0001.33,0000.60,0000.43
2022-02-20 21:57:00,,0815.9,5.00,0.00,27.3,26.6,00.0,36.2,29.1,02.9,0000.0,0001.31,0000.59,0000.42
2022-02-20 21:58:00,,0815.9,4.99,0.00,27.3,26.6,00.0,36.2,29.0,03.1,0000.0,0001.35,0000.60,0000.43
2022-02-20 21:59:00,,0815.6,5.00,0.00,27.3,26.6,00.0,36.2,29.0,03.1,0000.0,0001.32,0000.58,0000.42
